Taylorville, IL

6:03 AM CDT on July 24, 2017 (GMT -0500)
Taylorville Municipal

Weather History for KTAZ - February, 2012

Change the Weather History Date:

Tuesday, February 14, 2012

  Actual Average (KSPI) Record (KSPI)
Temperature  
Mean Temperature 34 °F -  
Max Temperature 39 °F 38 °F 71 °F (1954)
Min Temperature 30 °F 23 °F -10 °F (1905)
Degree Days  
Heating Degree Days 30    
Moisture  
Dew Point 32 °F    
Average Humidity 93    
Maximum Humidity 100    
Minimum Humidity 81    
Precipitation  
Precipitation 0.04 in - - ()
Sea Level Pressure  
Sea Level Pressure 29.89 in    
Wind  
Wind Speed 8 mph (SW)    
Max Wind Speed 13 mph    
Max Gust Speed -    
Visibility 7 miles    
Events Snow    
Averages and records for this station are not official NWS values.
T = Trace of Precipitation, MM = Missing Value Source: NWS Daily Summary

Daily Weather History Graph

Daily Weather History Graph

Search for Another Location

Airport or City:

Trip Planner

Search our weather history database for the weather conditions in past years. The results will help you decide how hot, cold, wet, or windy it might be!

Date:

Astronomy

Feb. 14, 2012 Rise Set
Actual Time 6:51 AM CST 5:32 PM CST
Civil Twilight 6:23 AM CST 5:59 PM CST
Nautical Twilight 5:52 AM CST 6:31 PM CST
Astronomical Twilight 5:20 AM CST 7:02 PM CST
Moon 12:35 AM CST (2/14) 10:38 AM CST (2/14)
Length of Visible Light 11h 36m
Length of Day
10h 40m
Waning Gibbous, 50% of the Moon is Illuminated
Feb 14
Waning Gibbous
Feb 21
New
Feb 29
First Quarter
Mar 8
Full
Mar 14
Last Quarter

Hourly Weather History & Observations

Time (CST) Temp. Windchill Dew Point Humidity Pressure Visibility Wind Dir Wind Speed Gust Speed Precip Events Conditions
12:15 AM 30.2 °F 20.2 °F 28.4 °F 93% 29.85 in 5.0 mi South 12.7 mph - N/A   Mostly Cloudy
12:35 AM 30.2 °F 21.3 °F 30.2 °F 100% 29.85 in 3.0 mi South 10.4 mph - N/A   Overcast
12:55 AM 30.2 °F 21.3 °F 30.2 °F 100% 29.84 in 2.5 mi South 10.4 mph - N/A   Overcast
1:15 AM 30.2 °F 21.3 °F 30.2 °F 100% 29.83 in 2.5 mi South 10.4 mph - N/A   Overcast
1:35 AM 30.2 °F 21.9 °F 30.2 °F 100% 29.83 in 2.0 mi South 9.2 mph - N/A   Overcast
1:55 AM 30.2 °F 22.6 °F 30.2 °F 100% 29.83 in 2.0 mi South 8.1 mph - N/A Snow Light Snow
2:15 AM 30.2 °F 23.4 °F 30.2 °F 100% 29.83 in 1.8 mi South 6.9 mph - N/A Snow Light Snow
2:35 AM 30.2 °F 23.4 °F 30.2 °F 100% 29.83 in 1.5 mi South 6.9 mph - N/A Snow Light Snow
2:55 AM 30.2 °F 23.4 °F 30.2 °F 100% 29.82 in 3.0 mi South 6.9 mph - N/A Snow Light Snow
3:15 AM 30.2 °F 22.6 °F 30.2 °F 100% 29.83 in 2.0 mi SSW 8.1 mph - N/A Snow Light Snow
3:35 AM 30.2 °F 23.4 °F 30.2 °F 100% 29.83 in 1.8 mi South 6.9 mph - N/A Snow Light Snow
3:55 AM 30.2 °F 24.3 °F 30.2 °F 100% 29.82 in 1.0 mi South 5.8 mph - N/A Snow Light Snow
4:15 AM 30.2 °F 24.3 °F 30.2 °F 100% 29.83 in 2.0 mi SSW 5.8 mph - N/A Snow Light Snow
4:35 AM 30.2 °F 24.3 °F 30.2 °F 100% 29.83 in 5.0 mi SSW 5.8 mph - N/A   Mostly Cloudy
4:55 AM 30.2 °F 24.3 °F 30.2 °F 100% 29.83 in 2.0 mi SSW 5.8 mph - N/A Snow Light Snow
5:15 AM 30.2 °F 24.3 °F 30.2 °F 100% 29.84 in 1.2 mi SSW 5.8 mph - N/A Snow Light Snow
5:35 AM 30.2 °F 25.4 °F 30.2 °F 100% 29.84 in 2.5 mi SSW 4.6 mph - N/A Snow Light Snow
5:55 AM 30.2 °F 25.4 °F 30.2 °F 100% 29.85 in 3.0 mi SW 4.6 mph - N/A   Overcast
6:15 AM 30.2 °F 24.3 °F 30.2 °F 100% 29.85 in 5.0 mi SSW 5.8 mph - N/A   Overcast
6:35 AM 30.2 °F 24.3 °F 30.2 °F 100% 29.85 in 10.0 mi SW 5.8 mph - N/A   Overcast
6:55 AM 30.2 °F 24.3 °F 30.2 °F 100% 29.86 in 7.0 mi SW 5.8 mph - N/A   Overcast
7:15 AM 30.2 °F 24.3 °F 30.2 °F 100% 29.86 in 3.0 mi SW 5.8 mph - N/A   Overcast
7:35 AM 32.0 °F 26.4 °F 32.0 °F 100% 29.87 in 4.0 mi SW 5.8 mph - N/A   Overcast
7:55 AM 32.0 °F 26.4 °F 32.0 °F 100% 29.87 in 7.0 mi WSW 5.8 mph - N/A   Overcast
8:15 AM 32.0 °F 26.4 °F 32.0 °F 100% 29.88 in 7.0 mi WSW 5.8 mph - N/A   Overcast
8:35 AM 33.8 °F 28.6 °F 32.0 °F 93% 29.88 in 10.0 mi WSW 5.8 mph - N/A   Unknown
8:55 AM 33.8 °F 28.6 °F 33.8 °F 100% 29.88 in 10.0 mi WSW 5.8 mph - N/A   Unknown
9:15 AM 33.8 °F 27.7 °F 33.8 °F 100% 29.90 in 10.0 mi WSW 6.9 mph - N/A   Unknown
9:35 AM 35.6 °F 29.2 °F 33.8 °F 93% 29.91 in 10.0 mi WSW 8.1 mph - 0.03 in   Unknown
9:55 AM 35.6 °F 30.7 °F 33.8 °F 93% 29.91 in 10.0 mi WSW 5.8 mph - 0.01 in   Unknown
10:15 AM 35.6 °F 29.2 °F 33.8 °F 93% 29.92 in 10.0 mi West 8.1 mph - 0.01 in   Unknown
10:35 AM 37.4 °F 31.4 °F 33.8 °F 87% 29.92 in 10.0 mi West 8.1 mph - 0.01 in   Unknown
10:55 AM 37.4 °F 31.4 °F 33.8 °F 87% 29.93 in 10.0 mi West 8.1 mph - N/A   Unknown
11:15 AM 37.4 °F 32.1 °F 33.8 °F 87% 29.92 in 10.0 mi West 6.9 mph - N/A   Unknown
11:35 AM 39.2 °F 34.2 °F 33.8 °F 81% 29.92 in 10.0 mi West 6.9 mph - N/A   Unknown
11:55 AM 37.4 °F 31.4 °F 33.8 °F 87% 29.92 in 10.0 mi WSW 8.1 mph - N/A   Mostly Cloudy
12:15 PM 37.4 °F 31.4 °F 33.8 °F 87% 29.92 in 10.0 mi WSW 8.1 mph - N/A   Unknown
12:35 PM 35.6 °F 28.6 °F 32.0 °F 87% 29.92 in 10.0 mi WSW 9.2 mph - N/A   Unknown
12:55 PM 35.6 °F 28.6 °F 32.0 °F 87% 29.92 in 10.0 mi WSW 9.2 mph - N/A   Overcast
1:15 PM 37.4 °F 32.1 °F 33.8 °F 87% 29.91 in 10.0 mi WSW 6.9 mph - N/A   Unknown
1:35 PM 37.4 °F 30.8 °F 32.0 °F 81% 29.91 in 10.0 mi West 9.2 mph - N/A   Unknown
1:55 PM 37.4 °F 31.4 °F 32.0 °F 81% 29.92 in 10.0 mi West 8.1 mph - N/A   Unknown
2:15 PM 37.4 °F 32.8 °F 33.8 °F 87% 29.92 in 10.0 mi West 5.8 mph - N/A   Unknown
2:35 PM 37.4 °F 32.8 °F 33.8 °F 87% 29.93 in 10.0 mi West 5.8 mph - N/A   Unknown
2:55 PM 37.4 °F 34.9 °F 32.0 °F 81% 29.93 in 10.0 mi WSW 3.5 mph - N/A   Unknown
3:15 PM 35.6 °F 29.9 °F 32.0 °F 87% 29.94 in 10.0 mi SW 6.9 mph - N/A   Overcast
3:35 PM 35.6 °F 28.6 °F 32.0 °F 87% 29.95 in 10.0 mi WSW 9.2 mph - N/A   Overcast
3:55 PM 35.6 °F 28.6 °F 32.0 °F 87% 29.96 in 10.0 mi WSW 9.2 mph - N/A   Overcast
4:15 PM 35.6 °F 28.6 °F 30.2 °F 81% 29.96 in 10.0 mi SW 9.2 mph - N/A   Overcast
4:35 PM 35.6 °F 29.9 °F 32.0 °F 87% 29.97 in 10.0 mi WSW 6.9 mph - N/A   Overcast
4:55 PM 35.6 °F 29.9 °F 32.0 °F 87% 29.97 in 10.0 mi WSW 6.9 mph - N/A   Unknown
5:15 PM 35.6 °F 30.7 °F 30.2 °F 81% 29.97 in 10.0 mi SSW 5.8 mph - N/A   Overcast
5:35 PM 35.6 °F 30.7 °F 30.2 °F 81% 29.98 in 10.0 mi SW 5.8 mph - N/A   Overcast
5:55 PM 35.6 °F 29.9 °F 30.2 °F 81% 29.98 in 10.0 mi SSW 6.9 mph - N/A   Overcast
6:15 PM 35.6 °F 29.2 °F 30.2 °F 81% 29.99 in 10.0 mi SSW 8.1 mph - N/A   Overcast
6:35 PM 35.6 °F 29.9 °F 30.2 °F 81% 30.00 in 10.0 mi SSW 6.9 mph - N/A   Overcast
6:55 PM 35.6 °F 30.7 °F 30.2 °F 81% 30.00 in 10.0 mi SSW 5.8 mph - N/A   Overcast
7:15 PM 35.6 °F 31.7 °F 30.2 °F 81% 30.01 in 10.0 mi SSW 4.6 mph - N/A   Overcast
7:35 PM 33.8 °F 29.6 °F 30.2 °F 87% 30.00 in 10.0 mi South 4.6 mph - N/A   Overcast
7:55 PM 33.8 °F 30.8 °F 30.2 °F 87% 30.01 in 10.0 mi South 3.5 mph - N/A   Mostly Cloudy
8:15 PM 33.8 °F 30.8 °F 30.2 °F 87% 30.02 in 10.0 mi SSW 3.5 mph - N/A   Unknown
8:35 PM 32.0 °F 28.7 °F 30.2 °F 93% 30.02 in 10.0 mi South 3.5 mph - N/A   Unknown
8:55 PM 30.2 °F - 30.2 °F 100% 30.02 in 10.0 mi Calm Calm - N/A   Unknown
9:15 PM 30.2 °F - 30.2 °F 100% 30.03 in 10.0 mi Calm Calm - N/A   Unknown
9:35 PM 30.2 °F 26.7 °F 30.2 °F 100% 30.03 in 7.0 mi SE 3.5 mph - N/A   Clear
9:55 PM 30.2 °F 25.4 °F 28.4 °F 93% 30.03 in 7.0 mi SE 4.6 mph - N/A   Scattered Clouds
10:15 PM 30.2 °F 24.3 °F 30.2 °F 100% 30.03 in 7.0 mi SSE 5.8 mph - N/A   Unknown
10:35 PM 32.0 °F 25.6 °F 30.2 °F 93% 30.03 in 5.0 mi SSE 6.9 mph - N/A   Clear
10:55 PM 32.0 °F 24.8 °F 32.0 °F 100% 30.03 in 5.0 mi SSE 8.1 mph - N/A   Mist
11:15 PM 32.0 °F 26.4 °F 30.2 °F 93% 30.03 in 5.0 mi SSE 5.8 mph - N/A   Mist
11:35 PM 32.0 °F 24.8 °F 32.0 °F 100% 30.03 in 7.0 mi SSE 8.1 mph - N/A   Clear
11:55 PM 32.0 °F 24.2 °F 30.2 °F 93% 30.03 in 5.0 mi SSE 9.2 mph - N/A   Clear